Location: ?ejkovice
(49.0137°N, 14.3821°E)
Time: 21:03:36
(UTC+00:00)

UNK - Pass Details

Date: 23 May 2024
Orbit: 659 x 680 km, 98.3° (Epoch: 20 June)

Event Time Altitude Azimuth Distance (km) Brightness Sun altitude
Rises 01:42:09 0° 159° (SSE) 3,028 6.8 -11.5°
Reaches altitude 10° 01:44:23 10° 157° (SSE) 2,117 6.0 -11.2°
Maximum altitude 01:49:00 74° 73° (ENE) 711 4.0 -10.8°
Drops below altitude 10° 01:53:39 10° 349° (N) 2,130 6.9 -10.3°
Sets 01:55:54 0° 348° (NNW) 3,047 7.7 -10.0°
